Location: Unspecified
(43.4354°N, 0.0000°E)
Time: 02:37:53
(UTC+00:00)

Vanguard 1 Rocket - Pass Details

Date: 24 June 2019
Orbit: 652 x 4224 km, 34.3° (Epoch: 16 August)

Event Time Altitude Azimuth Distance (km) Brightness Sun altitude
Rises 22:32:16 0° 272° (W) 4,769 11.4 -20.0°
Reaches altitude 10° 22:37:50 10° 248° (WSW) 3,075 10.1 -20.4°
Maximum altitude 22:40:56 13° 222° (SW) 2,485 9.4 -20.6°
Enters shadow 22:41:15 13° 219° (SW) 2,456 9.3 -20.6°
